Time,TemperatureF,DewpointF,PressureIn,WindDirection,WindDirectionDegrees,WindSpeedMPH,WindSpeedGustMPH,Humidity,HourlyPrecipIn,Conditions,Clouds,dailyrainin,SolarRadiationWatts/m^2,SoftwareType,DateUTC
2013-04-11 00:03:00,26.0,19.2,30.14,ENE,73,8.0,12.0,75,0.00,,OVC080,0.00,0.00,VWS V14.00,2013-04-11 05:03:00,
2013-04-11 00:08:00,26.0,19.5,30.14,ENE,72,9.0,12.0,76,0.00,,OVC080,0.00,0.00,VWS V14.00,2013-04-11 05:08:00,
2013-04-11 00:13:00,25.9,19.1,30.14,East,79,8.0,12.0,75,0.00,,OVC080,0.00,0.00,VWS V14.00,2013-04-11 05:13:00,
2013-04-11 00:18:00,26.0,19.2,30.14,East,87,5.0,12.0,75,0.00,,OVC080,0.00,0.00,VWS V14.00,2013-04-11 05:18:00,
2013-04-11 00:23:00,26.0,18.5,30.14,East,96,8.0,13.0,73,0.00,,OVC080,0.00,0.00,VWS V14.00,2013-04-11 05:23:00,
2013-04-11 00:28:00,26.0,18.5,30.14,East,91,8.0,13.0,73,0.00,,OVC080,0.00,0.00,VWS V14.00,2013-04-11 05:28:00,
2013-04-11 00:34:00,26.1,18.3,30.13,East,90,8.0,13.0,72,0.00,,OVC080,0.00,0.00,VWS V14.00,2013-04-11 05:34:00,
2013-04-11 00:39:00,26.2,18.4,30.13,East,79,8.0,13.0,72,0.00,,OVC080,0.00,0.00,VWS V14.00,2013-04-11 05:39:00,
2013-04-11 00:44:00,26.2,18.7,30.12,East,85,9.0,13.0,73,0.00,,OVC080,0.00,0.00,VWS V14.00,2013-04-11 05:44:00,
2013-04-11 00:49:00,26.2,18.7,30.12,East,86,8.0,13.0,73,0.00,,OVC080,0.00,0.00,VWS V14.00,2013-04-11 05:49:00,
2013-04-11 00:54:00,26.2,18.4,30.12,East,92,7.0,13.0,72,0.00,,OVC080,0.00,0.00,VWS V14.00,2013-04-11 05:54:00,
2013-04-11 00:59:00,26.3,18.2,30.11,East,88,7.0,15.0,71,0.00,,OVC080,0.00,0.00,VWS V14.00,2013-04-11 05:59:00,
2013-04-11 01:04:00,26.5,18.0,30.11,East,88,10.0,13.0,70,0.00,,OVC080,0.00,0.00,VWS V14.00,2013-04-11 06:04:00,
2013-04-11 01:09:00,26.7,17.9,30.11,ENE,76,9.0,13.0,69,0.00,,OVC080,0.00,0.00,VWS V14.00,2013-04-11 06:09:00,
2013-04-11 01:14:00,26.7,17.9,30.11,East,100,10.0,13.0,69,0.00,,OVC080,0.00,0.00,VWS V14.00,2013-04-11 06:14:00,
2013-04-11 01:19:00,26.8,18.0,30.10,ENE,76,10.0,14.0,69,0.00,,OVC080,0.00,0.00,VWS V14.00,2013-04-11 06:19:00,
2013-04-11 01:24:00,26.7,18.2,30.11,ENE,76,11.0,14.0,70,0.00,,OVC080,0.00,0.00,VWS V14.00,2013-04-11 06:24:00,
2013-04-11 01:29:00,26.7,17.9,30.10,East,88,10.0,14.0,69,0.00,,OVC080,0.00,0.00,VWS V14.00,2013-04-11 06:29:00,
2013-04-11 01:34:00,26.7,17.9,30.10,ENE,74,7.0,11.0,69,0.00,,OVC080,0.00,0.00,VWS V14.00,2013-04-11 06:34:00,
2013-04-11 01:39:00,26.7,17.9,30.10,ENE,76,8.0,14.0,69,0.00,,OVC080,0.00,0.00,VWS V14.00,2013-04-11 06:39:00,
2013-04-11 01:45:00,26.6,17.8,30.10,ENE,78,11.0,14.0,69,0.00,,OVC085,0.00,0.00,VWS V14.00,2013-04-11 06:45:00,
2013-04-11 01:50:00,26.6,18.1,30.10,East,82,11.0,14.0,70,0.00,,OVC085,0.00,0.00,VWS V14.00,2013-04-11 06:50:00,
2013-04-11 01:55:00,26.6,18.1,30.10,ENE,77,9.0,14.0,70,0.00,,OVC085,0.00,0.00,VWS V14.00,2013-04-11 06:55:00,
2013-04-11 02:00:00,26.6,17.8,30.10,East,82,11.0,14.0,69,0.00,,OVC085,0.00,0.00,VWS V14.00,2013-04-11 07:00:00,
2013-04-11 02:05:00,26.5,18.0,30.10,East,84,9.0,13.0,70,0.00,,OVC085,0.00,0.00,VWS V14.00,2013-04-11 07:05:00,
2013-04-11 02:10:00,26.5,18.0,30.10,East,84,10.0,15.0,70,0.00,,OVC085,0.00,0.00,VWS V14.00,2013-04-11 07:10:00,
2013-04-11 02:15:00,26.4,18.0,30.09,East,85,9.0,15.0,70,0.00,,OVC085,0.00,0.00,VWS V14.00,2013-04-11 07:15:00,
2013-04-11 02:20:00,26.4,18.0,30.09,ENE,75,10.0,15.0,70,0.00,,OVC085,0.00,0.00,VWS V14.00,2013-04-11 07:20:00,
2013-04-11 02:25:00,26.5,17.7,30.09,East,88,11.0,15.0,69,0.00,,OVC085,0.00,0.00,VWS V14.00,2013-04-11 07:25:00,
2013-04-11 02:30:00,26.7,17.2,30.08,East,80,15.0,15.0,67,0.00,,OVC085,0.00,0.00,VWS V14.00,2013-04-11 07:30:00,
2013-04-11 02:35:00,26.9,17.1,30.08,ENE,69,12.0,15.0,66,0.00,,OVC085,0.00,0.00,VWS V14.00,2013-04-11 07:35:00,
2013-04-11 02:40:00,27.0,17.2,30.08,East,81,10.0,15.0,66,0.00,,OVC085,0.00,0.00,VWS V14.00,2013-04-11 07:40:00,
2013-04-11 02:45:00,27.0,17.2,30.07,ENE,66,10.0,15.0,66,0.00,,OVC090,0.00,0.00,VWS V14.00,2013-04-11 07:45:00,
2013-04-11 02:50:00,26.9,17.4,30.07,East,82,11.0,15.0,67,0.00,,OVC090,0.00,0.00,VWS V14.00,2013-04-11 07:50:00,
2013-04-11 02:55:00,26.9,17.4,30.07,East,85,10.0,16.0,67,0.00,,OVC090,0.00,0.00,VWS V14.00,2013-04-11 07:55:00,
2013-04-11 03:00:00,27.0,17.5,30.06,ENE,74,7.0,8.0,67,0.00,,OVC090,0.00,0.00,VWS V14.00,2013-04-11 08:00:00,
2013-04-11 03:05:00,26.9,17.8,30.06,East,79,10.0,15.0,68,0.00,,OVC090,0.00,0.00,VWS V14.00,2013-04-11 08:05:00,
2013-04-11 03:10:00,27.0,17.5,30.06,ENE,77,10.0,15.0,67,0.00,,OVC090,0.00,0.00,VWS V14.00,2013-04-11 08:10:00,
2013-04-11 03:15:00,27.0,17.9,30.05,East,80,11.0,15.0,68,0.00,,OVC090,0.00,0.00,VWS V14.00,2013-04-11 08:15:00,
2013-04-11 03:20:00,26.9,17.8,30.05,East,81,8.0,15.0,68,0.00,,OVC090,0.00,0.00,VWS V14.00,2013-04-11 08:20:00,
2013-04-11 03:26:00,26.7,17.9,30.05,East,95,13.0,15.0,69,0.00,,OVC090,0.00,0.00,VWS V14.00,2013-04-11 08:26:00,
2013-04-11 03:31:00,26.7,18.2,30.04,East,98,8.0,10.0,70,0.00,,OVC090,0.00,0.00,VWS V14.00,2013-04-11 08:31:00,
2013-04-11 03:37:00,26.5,18.0,30.04,East,92,7.0,11.0,70,0.00,,OVC090,0.00,0.00,VWS V14.00,2013-04-11 08:37:00,
2013-04-11 03:42:00,26.4,18.3,30.04,East,94,7.0,11.0,71,0.00,,OVC100,0.00,0.00,VWS V14.00,2013-04-11 08:42:00,
2013-04-11 03:47:00,26.3,18.2,30.04,East,100,8.0,11.0,71,0.00,,OVC100,0.00,0.00,VWS V14.00,2013-04-11 08:47:00,
2013-04-11 03:52:00,26.3,18.5,30.04,East,90,9.0,11.0,72,0.00,,OVC100,0.00,0.00,VWS V14.00,2013-04-11 08:52:00,
2013-04-11 03:57:00,26.4,18.6,30.04,East,98,8.0,11.0,72,0.00,,OVC100,0.00,0.00,VWS V14.00,2013-04-11 08:57:00,
2013-04-11 04:02:00,26.5,18.7,30.04,East,94,7.0,13.0,72,0.00,,OVC100,0.00,0.00,VWS V14.00,2013-04-11 09:02:00,
2013-04-11 04:07:00,26.6,18.8,30.03,East,101,11.0,14.0,72,0.00,,OVC100,0.00,0.00,VWS V14.00,2013-04-11 09:07:00,
2013-04-11 04:13:00,26.6,18.8,30.03,East,94,13.0,15.0,72,0.00,,OVC100,0.00,0.00,VWS V14.00,2013-04-11 09:13:00,
2013-04-11 04:18:00,26.6,19.1,30.03,East,90,9.0,15.0,73,0.00,,OVC100,0.00,0.00,VWS V14.00,2013-04-11 09:18:00,
2013-04-11 04:23:00,26.6,19.8,30.03,East,90,9.0,15.0,75,0.00,,OVC100,0.00,0.00,VWS V14.00,2013-04-11 09:23:00,
2013-04-11 04:28:00,26.5,20.0,30.03,ESE,123,13.0,15.0,76,0.00,,OVC100,0.00,0.00,VWS V14.00,2013-04-11 09:28:00,
2013-04-11 04:33:00,26.4,20.2,30.02,ESE,121,5.0,13.0,77,0.00,,OVC100,0.00,0.00,VWS V14.00,2013-04-11 09:33:00,
2013-04-11 04:38:00,26.3,20.4,30.02,ESE,112,7.0,13.0,78,0.00,,OVC100,0.00,0.00,VWS V14.00,2013-04-11 09:38:00,
2013-04-11 04:43:00,26.3,20.7,30.02,ESE,122,9.0,13.0,79,0.00,,BKN100,0.00,0.00,VWS V14.00,2013-04-11 09:43:00,
2013-04-11 04:48:00,26.3,21.0,30.02,ESE,110,5.0,13.0,80,0.00,,BKN100,0.00,0.00,VWS V14.00,2013-04-11 09:48:00,
2013-04-11 04:53:00,26.3,21.0,30.01,ESE,111,5.0,13.0,80,0.00,,BKN100,0.00,0.00,VWS V14.00,2013-04-11 09:53:00,
2013-04-11 04:59:00,26.2,21.2,30.01,ESE,115,5.0,13.0,81,0.00,,BKN100,0.00,0.00,VWS V14.00,2013-04-11 09:59:00,
2013-04-11 05:04:00,26.1,21.1,30.01,ESE,115,4.0,5.0,81,0.00,,BKN100,0.00,0.00,VWS V14.00,2013-04-11 10:04:00,
2013-04-11 05:09:00,26.1,21.1,30.01,ESE,115,1.0,5.0,81,0.00,,BKN100,0.00,0.00,VWS V14.00,2013-04-11 10:09:00,
2013-04-11 05:14:00,26.1,21.1,30.00,ESE,115,0.0,5.0,81,0.00,,BKN100,0.00,0.00,VWS V14.00,2013-04-11 10:14:00,
2013-04-11 05:19:00,26.1,21.4,30.00,ESE,115,1.0,5.0,82,0.00,,BKN100,0.00,0.00,VWS V14.00,2013-04-11 10:19:00,
2013-04-11 05:24:00,26.2,21.5,30.00,ESE,115,3.0,5.0,82,0.00,,OVC100,0.00,0.00,VWS V14.00,2013-04-11 10:24:00,
2013-04-11 05:29:00,26.1,21.4,30.00,ENE,69,2.0,6.0,82,0.00,,OVC100,0.00,0.00,VWS V14.00,2013-04-11 10:29:00,
2013-04-11 05:34:00,26.1,21.4,30.00,ENE,69,4.0,4.0,82,0.00,,OVC100,0.00,0.00,VWS V14.00,2013-04-11 10:34:00,
2013-04-11 05:39:00,26.1,21.4,29.99,ENE,57,5.0,5.0,82,0.00,,OVC100,0.00,0.00,VWS V14.00,2013-04-11 10:39:00,
2013-04-11 05:44:00,25.9,21.2,29.98,North,360,5.0,7.0,82,0.00,,OVC100,0.00,0.00,VWS V14.00,2013-04-11 10:44:00,
2013-04-11 05:49:00,26.0,21.3,29.98,North,360,8.0,9.0,82,0.00,,OVC100,0.00,0.00,VWS V14.00,2013-04-11 10:49:00,
2013-04-11 05:54:00,26.1,21.4,29.98,North,5,7.0,9.0,82,0.00,,OVC080,0.00,0.00,VWS V14.00,2013-04-11 10:54:00,
2013-04-11 05:59:00,26.1,21.4,29.98,North,5,5.0,9.0,82,0.00,,OVC080,0.00,0.00,VWS V14.00,2013-04-11 10:59:00,
2013-04-11 06:05:00,26.2,21.5,29.98,North,5,7.0,9.0,82,0.00,,OVC100,0.00,0.00,VWS V14.00,2013-04-11 11:05:00,
2013-04-11 06:10:00,26.2,21.5,29.98,North,11,6.0,9.0,82,0.00,,OVC100,0.00,0.00,VWS V14.00,2013-04-11 11:10:00,
2013-04-11 06:15:00,26.3,21.6,29.97,NNE,26,8.0,9.0,82,0.00,,OVC100,0.00,0.00,VWS V14.00,2013-04-11 11:15:00,
2013-04-11 06:20:00,26.6,21.6,29.97,NNE,29,9.0,9.0,81,0.00,,OVC100,0.00,0.00,VWS V14.00,2013-04-11 11:20:00,
2013-04-11 06:25:00,26.9,21.6,29.97,NNE,31,10.0,11.0,80,0.00,,OVC100,0.00,0.00,VWS V14.00,2013-04-11 11:25:00,
2013-04-11 06:30:00,27.1,21.5,29.97,NNE,28,6.0,11.0,79,0.00,,OVC100,0.00,0.00,VWS V14.00,2013-04-11 11:30:00,
2013-04-11 06:35:00,27.2,21.3,29.97,NNE,22,6.0,9.0,78,0.00,,OVC100,0.00,0.00,VWS V14.00,2013-04-11 11:35:00,
2013-04-11 06:40:00,27.2,21.3,29.97,North,11,7.0,9.0,78,0.00,,OVC100,0.00,0.00,VWS V14.00,2013-04-11 11:40:00,
2013-04-11 06:45:00,27.2,21.3,29.97,North,9,7.0,9.0,78,0.00,,OVC095,0.00,0.00,VWS V14.00,2013-04-11 11:45:00,
2013-04-11 06:50:00,27.1,21.2,29.97,NNE,15,7.0,9.0,78,0.00,,OVC095,0.00,0.00,VWS V14.00,2013-04-11 11:50:00,
2013-04-11 06:55:00,27.1,21.2,29.97,North,9,7.0,10.0,78,0.00,,OVC095,0.00,0.00,VWS V14.00,2013-04-11 11:55:00,
2013-04-11 07:00:00,27.1,21.2,29.97,NNE,12,7.0,7.0,78,0.00,,OVC095,0.00,0.00,VWS V14.00,2013-04-11 12:00:00,
2013-04-11 07:05:00,27.1,21.2,29.97,NNE,15,6.0,9.0,78,0.00,,OVC095,0.00,0.00,VWS V14.00,2013-04-11 12:05:00,
2013-04-11 07:10:00,27.1,21.2,29.97,NNE,15,7.0,10.0,78,0.00,,OVC095,0.00,5.00,VWS V14.00,2013-04-11 12:10:00,
2013-04-11 07:16:00,27.0,21.1,29.97,NNE,13,6.0,10.0,78,0.00,,OVC095,0.00,7.00,VWS V14.00,2013-04-11 12:16:00,
2013-04-11 07:22:00,27.1,21.5,29.97,North,5,6.0,10.0,79,0.00,,OVC095,0.00,9.00,VWS V14.00,2013-04-11 12:22:00,
2013-04-11 07:27:00,27.0,21.4,29.97,North,9,8.0,10.0,79,0.00,,OVC095,0.00,11.00,VWS V14.00,2013-04-11 12:27:00,
2013-04-11 07:32:00,27.1,21.5,29.97,North,9,4.0,8.0,79,0.00,,OVC095,0.00,14.00,VWS V14.00,2013-04-11 12:32:00,
2013-04-11 07:37:00,27.1,21.5,29.98,North,11,6.0,8.0,79,0.00,,OVC095,0.00,18.00,VWS V14.00,2013-04-11 12:37:00,
2013-04-11 07:43:00,27.2,21.6,29.98,NNE,12,6.0,8.0,79,0.00,,OVC100,0.00,18.00,VWS V14.00,2013-04-11 12:43:00,
2013-04-11 07:48:00,27.2,21.6,29.98,NNE,13,6.0,9.0,79,0.00,,OVC100,0.00,16.00,VWS V14.00,2013-04-11 12:48:00,
2013-04-11 07:53:00,27.2,21.9,29.98,North,11,7.0,10.0,80,0.00,,OVC100,0.00,18.00,VWS V14.00,2013-04-11 12:53:00,
2013-04-11 07:58:00,27.3,22.0,29.98,NNE,15,4.0,10.0,80,0.00,,OVC100,0.00,25.00,VWS V14.00,2013-04-11 12:58:00,
2013-04-11 08:03:00,27.5,22.5,29.98,NNE,15,5.0,8.0,81,0.00,,OVC100,0.00,42.00,VWS V14.00,2013-04-11 13:03:00,
2013-04-11 08:08:00,27.7,22.6,29.98,NNE,15,7.0,10.0,81,0.00,,OVC100,0.00,54.00,VWS V14.00,2013-04-11 13:08:00,
2013-04-11 08:13:00,28.0,22.6,29.98,North,11,7.0,10.0,80,0.00,,OVC100,0.00,67.00,VWS V14.00,2013-04-11 13:13:00,
2013-04-11 08:18:00,28.3,22.9,29.98,NNE,16,4.0,10.0,80,0.00,,OVC100,0.00,54.00,VWS V14.00,2013-04-11 13:18:00,
2013-04-11 08:23:00,28.4,22.7,29.98,NNE,14,5.0,10.0,79,0.00,,OVC100,0.00,67.00,VWS V14.00,2013-04-11 13:23:00,
2013-04-11 08:29:00,28.6,23.2,29.98,NNE,15,3.0,10.0,80,0.00,,OVC100,0.00,70.00,VWS V14.00,2013-04-11 13:29:00,
2013-04-11 08:34:00,28.8,23.1,29.98,North,11,4.0,8.0,79,0.00,,OVC090,0.00,81.00,VWS V14.00,2013-04-11 13:34:00,
2013-04-11 08:39:00,29.1,23.7,29.98,North,11,4.0,8.0,80,0.00,,OVC090,0.00,102.00,VWS V14.00,2013-04-11 13:39:00,
2013-04-11 08:44:00,29.3,23.6,29.98,NNE,13,5.0,8.0,79,0.00,,OVC090,0.00,127.00,VWS V14.00,2013-04-11 13:44:00,
2013-04-11 08:49:00,29.6,23.9,29.98,North,11,4.0,8.0,79,0.00,,OVC090,0.00,128.00,VWS V14.00,2013-04-11 13:49:00,
2013-04-11 08:55:00,29.9,24.2,29.98,NNE,13,7.0,9.0,79,0.00,,OVC090,0.00,125.00,VWS V14.00,2013-04-11 13:55:00,
2013-04-11 09:00:00,30.2,24.2,29.98,NNE,24,8.0,10.0,78,0.00,,OVC090,0.00,95.00,VWS V14.00,2013-04-11 14:00:00,
2013-04-11 09:05:00,30.3,24.3,29.98,NNE,24,6.0,9.0,78,0.00,,OVC090,0.00,81.00,VWS V14.00,2013-04-11 14:05:00,
2013-04-11 09:10:00,30.3,24.3,29.98,NNE,30,8.0,9.0,78,0.00,,OVC090,0.00,123.00,VWS V14.00,2013-04-11 14:10:00,
2013-04-11 09:15:00,30.5,24.8,29.98,NE,42,6.0,9.0,79,0.00,,OVC090,0.00,132.00,VWS V14.00,2013-04-11 14:15:00,
2013-04-11 09:20:00,30.7,24.7,29.98,NE,47,5.0,9.0,78,0.00,,OVC090,0.00,149.00,VWS V14.00,2013-04-11 14:20:00,
2013-04-11 09:25:00,31.0,24.6,29.98,ENE,57,5.0,9.0,77,0.00,,OVC090,0.00,149.00,VWS V14.00,2013-04-11 14:25:00,
2013-04-11 09:30:00,31.2,24.8,29.97,ENE,57,5.0,5.0,77,0.00,,OVC090,0.00,137.00,VWS V14.00,2013-04-11 14:30:00,
2013-04-11 09:36:00,31.4,24.7,29.97,ENE,59,4.0,7.0,76,0.00,,OVC090,0.00,125.00,VWS V14.00,2013-04-11 14:36:00,
2013-04-11 09:42:00,31.7,23.7,29.97,East,88,8.0,9.0,72,0.00,,OVC080,0.00,125.00,VWS V14.00,2013-04-11 14:42:00,
2013-04-11 09:47:00,32.0,23.7,29.97,East,89,8.0,9.0,71,0.00,,OVC080,0.00,123.00,VWS V14.00,2013-04-11 14:47:00,
2013-04-11 09:52:00,32.1,23.1,29.97,East,84,6.0,10.0,69,0.00,,OVC080,0.00,127.00,VWS V14.00,2013-04-11 14:52:00,
2013-04-11 09:58:00,32.1,22.8,29.97,ENE,77,3.0,10.0,68,0.00,,OVC080,0.00,128.00,VWS V14.00,2013-04-11 14:58:00,
2013-04-11 10:03:00,32.3,23.3,29.96,ENE,67,8.0,9.0,69,0.00,,OVC080,0.00,141.00,VWS V14.00,2013-04-11 15:03:00,
2013-04-11 10:08:00,32.5,23.8,29.96,ENE,69,4.0,10.0,70,0.00,,OVC080,0.00,160.00,VWS V14.00,2013-04-11 15:08:00,
2013-04-11 10:13:00,32.6,23.9,29.96,ENE,57,10.0,10.0,70,0.00,,OVC080,0.00,178.00,VWS V14.00,2013-04-11 15:13:00,
2013-04-11 10:18:00,32.8,24.1,29.96,ENE,69,7.0,10.0,70,0.00,,OVC080,0.00,197.00,VWS V14.00,2013-04-11 15:18:00,
2013-04-11 10:23:00,32.8,24.1,29.96,ENE,78,7.0,10.0,70,0.00,,OVC080,0.00,214.00,VWS V14.00,2013-04-11 15:23:00,
2013-04-11 10:28:00,33.0,24.0,29.96,ENE,63,5.0,13.0,69,0.00,,OVC080,0.00,236.00,VWS V14.00,2013-04-11 15:28:00,
2013-04-11 10:33:00,33.3,25.6,29.96,NE,37,9.0,10.0,73,0.00,,OVC075,0.00,246.00,VWS V14.00,2013-04-11 15:33:00,
2013-04-11 10:38:00,33.4,26.0,29.96,NNE,26,10.0,13.0,74,0.00,,OVC075,0.00,241.00,VWS V14.00,2013-04-11 15:38:00,
2013-04-11 10:44:00,33.4,26.0,29.96,North,5,9.0,13.0,74,0.00,,OVC075,0.00,230.00,VWS V14.00,2013-04-11 15:44:00,
2013-04-11 10:49:00,33.4,26.3,29.95,NNE,13,10.0,13.0,75,0.00,,OVC075,0.00,253.00,VWS V14.00,2013-04-11 15:49:00,
2013-04-11 10:54:00,33.7,26.3,29.95,NE,40,8.0,13.0,74,0.00,,OVC075,0.00,265.00,VWS V14.00,2013-04-11 15:54:00,
2013-04-11 10:59:00,33.8,26.4,29.95,NE,39,7.0,13.0,74,0.00,,OVC075,0.00,265.00,VWS V14.00,2013-04-11 15:59:00,
2013-04-11 11:04:00,33.9,26.2,29.95,NE,34,7.0,12.0,73,0.00,,OVC075,0.00,271.00,VWS V14.00,2013-04-11 16:04:00,
2013-04-11 11:09:00,34.0,25.9,29.95,NNE,22,9.0,12.0,72,0.00,,OVC075,0.00,279.00,VWS V14.00,2013-04-11 16:09:00,
2013-04-11 11:14:00,34.0,25.9,29.96,NNE,22,8.0,13.0,72,0.00,,OVC075,0.00,297.00,VWS V14.00,2013-04-11 16:14:00,
2013-04-11 11:20:00,34.0,25.9,29.96,NNE,29,8.0,13.0,72,0.00,,OVC075,0.00,316.00,VWS V14.00,2013-04-11 16:20:00,
2013-04-11 11:25:00,34.2,25.8,29.95,NNE,18,8.0,13.0,71,0.00,,OVC075,0.00,306.00,VWS V14.00,2013-04-11 16:25:00,
2013-04-11 11:30:00,34.2,25.8,29.96,NNE,26,9.0,13.0,71,0.00,,OVC075,0.00,311.00,VWS V14.00,2013-04-11 16:30:00,
2013-04-11 11:35:00,34.2,25.8,29.96,NNE,21,9.0,9.0,71,0.00,,OVC080,0.00,332.00,VWS V14.00,2013-04-11 16:35:00,
2013-04-11 11:40:00,34.6,25.8,29.96,North,5,10.0,11.0,70,0.00,,OVC080,0.00,353.00,VWS V14.00,2013-04-11 16:40:00,
2013-04-11 11:45:00,34.6,25.5,29.95,North,5,9.0,11.0,69,0.00,,OVC080,0.00,388.00,VWS V14.00,2013-04-11 16:45:00,
2013-04-11 11:50:00,34.8,25.7,29.96,NNE,25,9.0,11.0,69,0.00,,OVC080,0.00,397.00,VWS V14.00,2013-04-11 16:50:00,
2013-04-11 11:56:00,35.1,24.9,29.95,NNE,22,10.0,13.0,66,0.00,,OVC080,0.00,404.00,VWS V14.00,2013-04-11 16:56:00,
2013-04-11 12:01:00,35.4,25.5,29.95,NNE,22,10.0,12.0,67,0.00,,OVC080,0.00,455.00,VWS V14.00,2013-04-11 17:01:00,
2013-04-11 12:07:00,35.8,25.2,29.96,NNE,33,4.0,13.0,65,0.00,,OVC080,0.00,461.00,VWS V14.00,2013-04-11 17:07:00,
2013-04-11 12:12:00,36.2,25.6,29.95,NNE,21,10.0,15.0,65,0.00,,OVC080,0.00,436.00,VWS V14.00,2013-04-11 17:12:00,
2013-04-11 12:17:00,35.9,24.5,29.95,NNE,26,10.0,15.0,63,0.00,,OVC080,0.00,410.00,VWS V14.00,2013-04-11 17:17:00,
2013-04-11 12:22:00,36.0,24.3,29.95,North,11,11.0,15.0,62,0.00,,OVC080,0.00,404.00,VWS V14.00,2013-04-11 17:22:00,
2013-04-11 12:27:00,35.9,24.2,29.95,NE,49,9.0,15.0,62,0.00,,OVC080,0.00,417.00,VWS V14.00,2013-04-11 17:27:00,
2013-04-11 12:33:00,36.1,24.7,29.94,NE,34,13.0,16.0,63,0.00,,OVC090,0.00,434.00,VWS V14.00,2013-04-11 17:33:00,
2013-04-11 12:38:00,36.1,24.7,29.94,NE,53,12.0,16.0,63,0.00,,OVC090,0.00,404.00,VWS V14.00,2013-04-11 17:38:00,
2013-04-11 12:43:00,36.1,24.0,29.94,NE,53,9.0,16.0,61,0.00,,OVC090,0.00,385.00,VWS V14.00,2013-04-11 17:43:00,
2013-04-11 12:48:00,35.9,23.8,29.94,NNE,26,12.0,17.0,61,0.00,,OVC090,0.00,446.00,VWS V14.00,2013-04-11 17:48:00,
2013-04-11 12:53:00,36.1,23.6,29.94,NE,42,13.0,17.0,60,0.00,,OVC090,0.00,482.00,VWS V14.00,2013-04-11 17:53:00,
2013-04-11 12:58:00,36.3,23.4,29.94,NNE,32,8.0,17.0,59,0.00,,OVC090,0.00,475.00,VWS V14.00,2013-04-11 17:58:00,
2013-04-11 13:03:00,36.4,23.0,29.93,NNE,21,11.0,15.0,58,0.00,,OVC090,0.00,387.00,VWS V14.00,2013-04-11 18:03:00,
2013-04-11 13:08:00,36.2,22.9,29.93,NE,38,13.0,16.0,58,0.00,,OVC090,0.00,381.00,VWS V14.00,2013-04-11 18:08:00,
2013-04-11 13:13:00,36.4,23.5,29.93,NNE,14,9.0,16.0,59,0.00,,OVC090,0.00,385.00,VWS V14.00,2013-04-11 18:13:00,
2013-04-11 13:18:00,36.7,23.7,29.93,NNE,33,13.0,16.0,59,0.00,,OVC090,0.00,415.00,VWS V14.00,2013-04-11 18:18:00,
2013-04-11 13:23:00,36.6,23.6,29.93,NE,42,15.0,16.0,59,0.00,,OVC090,0.00,445.00,VWS V14.00,2013-04-11 18:23:00,
2013-04-11 13:29:00,36.5,24.3,29.93,NNE,32,13.0,17.0,61,0.00,,OVC090,0.00,462.00,VWS V14.00,2013-04-11 18:29:00,
2013-04-11 13:34:00,36.6,24.0,29.93,NE,43,11.0,17.0,60,0.00,,OVC090,0.00,454.00,VWS V14.00,2013-04-11 18:34:00,
2013-04-11 13:39:00,36.5,23.5,29.93,NE,45,11.0,17.0,59,0.00,,OVC090,0.00,455.00,VWS V14.00,2013-04-11 18:39:00,
2013-04-11 13:44:00,36.7,24.5,29.93,NNE,27,13.0,17.0,61,0.00,,OVC090,0.00,485.00,VWS V14.00,2013-04-11 18:44:00,
2013-04-11 13:49:00,36.6,23.2,29.92,NNE,22,13.0,18.0,58,0.00,,OVC090,0.00,508.00,VWS V14.00,2013-04-11 18:49:00,
2013-04-11 13:54:00,37.0,24.0,29.92,NE,41,13.0,18.0,59,0.00,,OVC090,0.00,520.00,VWS V14.00,2013-04-11 18:54:00,
2013-04-11 13:59:00,37.0,23.2,29.92,NNE,32,10.0,19.0,57,0.00,,OVC090,0.00,504.00,VWS V14.00,2013-04-11 18:59:00,
2013-04-11 14:05:00,37.2,23.8,29.92,NE,38,12.0,18.0,58,0.00,,OVC090,0.00,480.00,VWS V14.00,2013-04-11 19:05:00,
2013-04-11 14:10:00,37.2,23.8,29.92,NE,55,10.0,18.0,58,0.00,,OVC090,0.00,497.00,VWS V14.00,2013-04-11 19:10:00,
2013-04-11 14:15:00,37.3,23.5,29.93,ENE,62,14.0,18.0,57,0.00,,OVC090,0.00,497.00,VWS V14.00,2013-04-11 19:15:00,
2013-04-11 14:20:00,37.4,23.1,29.93,East,87,9.0,18.0,56,0.00,,OVC090,0.00,501.00,VWS V14.00,2013-04-11 19:20:00,
2013-04-11 14:25:00,36.9,23.1,29.93,NE,44,11.0,18.0,57,0.00,,OVC090,0.00,489.00,VWS V14.00,2013-04-11 19:25:00,
2013-04-11 14:30:00,37.0,24.0,29.93,NE,51,14.0,20.0,59,0.00,,OVC090,0.00,490.00,VWS V14.00,2013-04-11 19:30:00,
2013-04-11 14:35:00,37.5,24.9,29.93,NNE,28,19.0,19.0,60,0.00,,OVC095,0.00,464.00,VWS V14.00,2013-04-11 19:35:00,
2013-04-11 14:40:00,37.4,24.4,29.93,NE,38,13.0,19.0,59,0.00,,OVC095,0.00,424.00,VWS V14.00,2013-04-11 19:40:00,
2013-04-11 14:45:00,37.4,24.4,29.93,NNE,25,11.0,19.0,59,0.00,,OVC095,0.00,387.00,VWS V14.00,2013-04-11 19:45:00,
2013-04-11 14:50:00,37.5,24.9,29.92,NNE,29,17.0,19.0,60,0.00,,OVC095,0.00,387.00,VWS V14.00,2013-04-11 19:50:00,
2013-04-11 14:56:00,37.4,25.2,29.92,NE,51,11.0,19.0,61,0.00,,OVC095,0.00,403.00,VWS V14.00,2013-04-11 19:56:00,
2013-04-11 15:01:00,37.4,25.6,29.92,NE,34,10.0,16.0,62,0.00,,OVC095,0.00,439.00,VWS V14.00,2013-04-11 20:01:00,
2013-04-11 15:08:00,37.0,25.2,29.92,NE,36,15.0,20.0,62,0.00,,OVC095,0.00,438.00,VWS V14.00,2013-04-11 20:08:00,
2013-04-11 15:13:00,37.3,26.3,29.92,NNE,27,14.0,20.0,64,0.00,,OVC095,0.00,410.00,VWS V14.00,2013-04-11 20:13:00,
2013-04-11 15:18:00,37.2,25.0,29.92,NE,49,14.0,20.0,61,0.00,,OVC095,0.00,385.00,VWS V14.00,2013-04-11 20:18:00,
2013-04-11 15:23:00,37.1,24.5,29.92,NE,49,11.0,20.0,60,0.00,,OVC095,0.00,403.00,VWS V14.00,2013-04-11 20:23:00,
2013-04-11 15:28:00,37.1,24.1,29.92,NE,41,15.0,20.0,59,0.00,,OVC095,0.00,396.00,VWS V14.00,2013-04-11 20:28:00,
2013-04-11 15:33:00,36.9,23.9,29.92,NE,47,11.0,18.0,59,0.00,,OVC095,0.00,373.00,VWS V14.00,2013-04-11 20:33:00,
2013-04-11 15:38:00,36.8,23.8,29.92,NNE,26,15.0,18.0,59,0.00,,OVC095,0.00,367.00,VWS V14.00,2013-04-11 20:38:00,
2013-04-11 15:44:00,36.7,23.7,29.92,NE,48,11.0,19.0,59,0.00,,OVC095,0.00,360.00,VWS V14.00,2013-04-11 20:44:00,
2013-04-11 15:49:00,36.5,24.7,29.92,NE,34,15.0,20.0,62,0.00,,OVC095,0.00,343.00,VWS V14.00,2013-04-11 20:49:00,
2013-04-11 15:54:00,36.2,24.8,29.92,NNE,26,15.0,20.0,63,0.00,,OVC095,0.00,334.00,VWS V14.00,2013-04-11 20:54:00,
2013-04-11 15:59:00,36.1,24.7,29.92,NE,44,13.0,20.0,63,0.00,,OVC095,0.00,330.00,VWS V14.00,2013-04-11 20:59:00,
2013-04-11 16:04:00,36.1,25.9,29.91,NNE,31,16.0,20.0,66,0.00,,OVC095,0.00,329.00,VWS V14.00,2013-04-11 21:04:00,
2013-04-11 16:09:00,35.6,25.4,29.91,NNE,15,17.0,20.0,66,0.00,,OVC095,0.00,320.00,VWS V14.00,2013-04-11 21:09:00,
2013-04-11 16:14:00,35.3,25.5,29.92,NNE,22,16.0,20.0,67,0.00,,OVC095,0.00,309.00,VWS V14.00,2013-04-11 21:14:00,
2013-04-11 16:19:00,35.2,25.4,29.91,NE,35,15.0,20.0,67,0.00,,OVC095,0.00,285.00,VWS V14.00,2013-04-11 21:19:00,
2013-04-11 16:24:00,35.3,25.5,29.91,NNE,28,15.0,21.0,67,0.00,,OVC095,0.00,283.00,VWS V14.00,2013-04-11 21:24:00,
2013-04-11 16:29:00,35.3,25.5,29.91,NNE,33,15.0,21.0,67,0.00,,OVC095,0.00,278.00,VWS V14.00,2013-04-11 21:29:00,
2013-04-11 16:35:00,35.3,25.1,29.91,NNE,32,12.0,17.0,66,0.00,,OVC100,0.00,260.00,VWS V14.00,2013-04-11 21:35:00,
2013-04-11 16:40:00,35.1,25.3,29.91,NE,35,12.0,19.0,67,0.00,,OVC100,0.00,227.00,VWS V14.00,2013-04-11 21:40:00,
2013-04-11 16:45:00,35.1,25.6,29.92,NNE,30,19.0,19.0,68,0.00,,OVC100,0.00,193.00,VWS V14.00,2013-04-11 21:45:00,
2013-04-11 16:50:00,34.7,25.6,29.92,NE,44,19.0,21.0,69,0.00,,OVC100,0.00,181.00,VWS V14.00,2013-04-11 21:50:00,
2013-04-11 16:55:00,34.1,25.0,29.92,NNE,22,13.0,21.0,69,0.00,,OVC100,0.00,186.00,VWS V14.00,2013-04-11 21:55:00,
2013-04-11 17:00:00,34.0,24.9,29.92,NE,42,13.0,21.0,69,0.00,,OVC100,0.00,207.00,VWS V14.00,2013-04-11 22:00:00,
2013-04-11 17:05:00,34.0,25.3,29.92,NNE,26,12.0,18.0,70,0.00,,OVC100,0.00,234.00,VWS V14.00,2013-04-11 22:05:00,
2013-04-11 17:10:00,34.0,24.2,29.92,NNE,26,14.0,19.0,67,0.00,,OVC100,0.00,243.00,VWS V14.00,2013-04-11 22:10:00,
2013-04-11 17:15:00,34.0,23.9,29.92,NNE,19,15.0,21.0,66,0.00,,OVC100,0.00,264.00,VWS V14.00,2013-04-11 22:15:00,
2013-04-11 17:20:00,33.7,23.2,29.92,NE,51,15.0,21.0,65,0.00,,OVC100,0.00,279.00,VWS V14.00,2013-04-11 22:20:00,
2013-04-11 17:26:00,33.8,22.9,29.92,NE,46,17.0,21.0,64,0.00,,OVC100,0.00,283.00,VWS V14.00,2013-04-11 22:26:00,
2013-04-11 17:31:00,33.9,23.8,29.93,NE,46,15.0,17.0,66,0.00,,OVC100,0.00,265.00,VWS V14.00,2013-04-11 22:31:00,
2013-04-11 17:37:00,33.9,23.8,29.93,NNE,33,14.0,21.0,66,0.00,,OVC100,0.00,218.00,VWS V14.00,2013-04-11 22:37:00,
2013-04-11 17:42:00,33.5,23.7,29.93,NE,42,12.0,21.0,67,0.00,,OVC100,0.00,181.00,VWS V14.00,2013-04-11 22:42:00,
2013-04-11 17:47:00,33.4,24.0,29.93,NE,49,17.0,21.0,68,0.00,,OVC100,0.00,174.00,VWS V14.00,2013-04-11 22:47:00,
2013-04-11 17:52:00,32.8,25.1,29.94,NE,43,13.0,21.0,73,0.00,,OVC100,0.00,172.00,VWS V14.00,2013-04-11 22:52:00,
2013-04-11 17:57:00,32.1,25.4,29.94,ENE,66,15.0,21.0,76,0.00,,OVC100,0.00,165.00,VWS V14.00,2013-04-11 22:57:00,
2013-04-11 18:02:00,31.1,25.7,29.94,NE,53,12.0,18.0,80,0.00,,OVC100,0.00,165.00,VWS V14.00,2013-04-11 23:02:00,
2013-04-11 18:07:00,30.3,25.8,29.94,NE,54,14.0,19.0,83,0.00,,OVC100,0.00,153.00,VWS V14.00,2013-04-11 23:07:00,
2013-04-11 18:12:00,29.9,26.0,29.94,NE,55,12.0,19.0,85,0.00,,OVC100,0.00,151.00,VWS V14.00,2013-04-11 23:12:00,
2013-04-11 18:17:00,29.6,26.2,29.94,ENE,58,13.0,19.0,87,0.00,,OVC100,0.00,156.00,VWS V14.00,2013-04-11 23:17:00,
2013-04-11 18:22:00,29.5,26.4,29.95,NE,55,10.0,19.0,88,0.00,,OVC100,0.00,144.00,VWS V14.00,2013-04-11 23:22:00,
2013-04-11 18:27:00,29.4,26.6,29.95,NE,55,12.0,19.0,89,0.00,,OVC100,0.00,139.00,VWS V14.00,2013-04-11 23:27:00,
2013-04-11 18:33:00,29.2,26.4,29.95,NE,56,9.0,13.0,89,0.00,,,0.00,127.00,VWS V14.00,2013-04-11 23:33:00,
2013-04-11 18:38:00,29.2,26.6,29.95,ENE,57,12.0,14.0,90,0.00,,,0.00,105.00,VWS V14.00,2013-04-11 23:38:00,
2013-04-11 18:43:00,29.0,26.4,29.95,NE,50,12.0,17.0,90,0.00,,,0.00,91.00,VWS V14.00,2013-04-11 23:43:00,
2013-04-11 18:48:00,29.0,26.4,29.95,NE,53,9.0,17.0,90,0.00,,,0.00,74.00,VWS V14.00,2013-04-11 23:48:00,
2013-04-11 18:53:00,28.9,26.3,29.95,ENE,57,11.0,17.0,90,0.00,,,0.00,63.00,VWS V14.00,2013-04-11 23:53:00,
2013-04-11 18:58:00,28.8,26.2,29.95,NE,53,10.0,17.0,90,0.00,,,0.00,54.00,VWS V14.00,2013-04-11 23:58:00,
2013-04-11 19:03:00,28.7,26.1,29.96,ENE,65,9.0,12.0,90,0.00,,,0.00,40.00,VWS V14.00,2013-04-12 00:03:00,
2013-04-11 19:08:00,28.5,26.0,29.96,ENE,74,10.0,16.0,90,0.00,,,0.00,42.00,VWS V14.00,2013-04-12 00:08:00,
2013-04-11 19:13:00,28.0,25.5,29.96,NE,55,14.0,21.0,90,0.00,,,0.00,42.00,VWS V14.00,2013-04-12 00:13:00,
2013-04-11 19:18:00,27.8,25.2,29.96,ENE,61,13.0,21.0,90,0.00,,,0.00,42.00,VWS V14.00,2013-04-12 00:18:00,
2013-04-11 19:23:00,27.7,25.2,29.96,ENE,62,8.0,21.0,90,0.00,,,0.00,42.00,VWS V14.00,2013-04-12 00:23:00,
2013-04-11 19:29:00,27.6,25.3,29.96,ENE,67,11.0,21.0,91,0.00,,,0.00,42.00,VWS V14.00,2013-04-12 00:29:00,
2013-04-11 19:34:00,27.6,25.3,29.96,ENE,69,8.0,15.0,91,0.00,,,0.00,40.00,VWS V14.00,2013-04-12 00:34:00,
2013-04-11 19:39:00,27.5,25.0,29.96,ENE,74,8.0,16.0,90,0.00,,,0.00,35.00,VWS V14.00,2013-04-12 00:39:00,
2013-04-11 19:44:00,27.4,24.9,29.96,ENE,77,11.0,16.0,90,0.00,,,0.00,30.00,VWS V14.00,2013-04-12 00:44:00,
2013-04-11 19:49:00,27.3,24.8,29.96,ENE,67,9.0,16.0,90,0.00,,,0.00,25.00,VWS V14.00,2013-04-12 00:49:00,
2013-04-11 19:54:00,27.3,24.8,29.96,ENE,74,9.0,16.0,90,0.00,,,0.00,19.00,VWS V14.00,2013-04-12 00:54:00,
2013-04-11 19:59:00,27.3,25.0,29.97,ENE,59,9.0,16.0,91,0.00,,,0.00,14.00,VWS V14.00,2013-04-12 00:59:00,
2013-04-11 20:04:00,27.2,24.9,29.97,ENE,59,14.0,15.0,91,0.00,,,0.00,11.00,VWS V14.00,2013-04-12 01:04:00,
2013-04-11 20:09:00,27.2,24.9,29.97,ENE,63,8.0,15.0,91,0.00,,,0.00,7.00,VWS V14.00,2013-04-12 01:09:00,
2013-04-11 20:14:00,27.1,24.8,29.97,ENE,66,10.0,15.0,91,0.00,,,0.00,5.00,VWS V14.00,2013-04-12 01:14:00,
2013-04-11 20:19:00,26.9,24.4,29.97,ENE,65,7.0,15.0,90,0.00,,,0.00,0.00,VWS V14.00,2013-04-12 01:19:00,
2013-04-11 20:24:00,26.7,24.2,29.97,ENE,67,12.0,15.0,90,0.00,,,0.00,0.00,VWS V14.00,2013-04-12 01:24:00,
2013-04-11 20:29:00,26.7,24.2,29.97,ENE,67,9.0,15.0,90,0.00,,,0.00,0.00,VWS V14.00,2013-04-12 01:29:00,
2013-04-11 20:34:00,26.6,24.3,29.97,ENE,77,7.0,12.0,91,0.00,,,0.00,0.00,VWS V14.00,2013-04-12 01:34:00,
2013-04-11 20:39:00,26.6,24.3,29.97,ENE,64,9.0,12.0,91,0.00,,,0.00,0.00,VWS V14.00,2013-04-12 01:39:00,
2013-04-11 20:45:00,26.4,24.1,29.97,ENE,74,5.0,12.0,91,0.00,,,0.00,0.00,VWS V14.00,2013-04-12 01:45:00,
2013-04-11 20:50:00,26.4,24.1,29.98,ENE,65,4.0,12.0,91,0.00,,,0.00,0.00,VWS V14.00,2013-04-12 01:50:00,
2013-04-11 20:55:00,26.3,24.0,29.98,East,80,6.0,12.0,91,0.00,,,0.00,0.00,VWS V14.00,2013-04-12 01:55:00,
2013-04-11 21:00:00,26.3,24.0,29.98,ENE,63,8.0,12.0,91,0.00,,,0.00,0.00,VWS V14.00,2013-04-12 02:00:00,
2013-04-11 21:05:00,26.2,23.9,29.98,East,84,6.0,9.0,91,0.00,,,0.00,0.00,VWS V14.00,2013-04-12 02:05:00,
2013-04-11 21:11:00,26.2,23.9,29.98,ENE,69,9.0,9.0,91,0.00,,,0.00,0.00,VWS V14.00,2013-04-12 02:11:00,
2013-04-11 21:16:00,26.1,23.8,29.98,ENE,68,5.0,9.0,91,0.00,,,0.00,0.00,VWS V14.00,2013-04-12 02:16:00,
2013-04-11 21:21:00,26.1,23.8,29.98,ENE,68,7.0,9.0,91,0.00,,,0.00,0.00,VWS V14.00,2013-04-12 02:21:00,
2013-04-11 21:27:00,26.1,24.1,29.98,ENE,67,4.0,9.0,92,0.00,,,0.00,0.00,VWS V14.00,2013-04-12 02:27:00,
2013-04-11 21:32:00,26.0,24.0,29.98,ENE,66,5.0,7.0,92,0.00,,,0.00,0.00,VWS V14.00,2013-04-12 02:32:00,
2013-04-11 21:37:00,26.0,24.0,29.98,East,97,10.0,13.0,92,0.00,,,0.00,0.00,VWS V14.00,2013-04-12 02:37:00,
2013-04-11 21:42:00,25.4,23.1,29.99,ENE,63,8.0,14.0,91,0.00,,,0.00,0.00,VWS V14.00,2013-04-12 02:42:00,
2013-04-11 21:47:00,25.3,23.0,29.99,ENE,65,9.0,14.0,91,0.00,,,0.00,0.00,VWS V14.00,2013-04-12 02:47:00,
2013-04-11 21:52:00,25.1,22.9,29.99,ENE,69,7.0,14.0,91,0.00,,,0.00,0.00,VWS V14.00,2013-04-12 02:52:00,
2013-04-11 21:57:00,25.1,22.9,29.99,ENE,64,10.0,14.0,91,0.00,,,0.00,0.00,VWS V14.00,2013-04-12 02:57:00,
2013-04-11 22:03:00,25.0,22.8,29.99,ENE,66,11.0,12.0,91,0.00,,,0.00,0.00,VWS V14.00,2013-04-12 03:03:00,
2013-04-11 22:08:00,25.0,22.8,29.99,ENE,75,4.0,12.0,91,0.00,,,0.00,0.00,VWS V14.00,2013-04-12 03:08:00,
2013-04-11 22:13:00,24.9,22.6,29.99,ENE,71,7.0,12.0,91,0.00,,,0.00,0.00,VWS V14.00,2013-04-12 03:13:00,
2013-04-11 22:18:00,25.0,22.8,29.99,ENE,67,4.0,12.0,91,0.00,,,0.00,0.00,VWS V14.00,2013-04-12 03:18:00,
2013-04-11 22:23:00,24.9,22.6,30.00,ENE,67,3.0,12.0,91,0.00,,,0.00,0.00,VWS V14.00,2013-04-12 03:23:00,
2013-04-11 22:28:00,25.0,22.8,29.99,ENE,65,3.0,12.0,91,0.00,,,0.00,0.00,VWS V14.00,2013-04-12 03:28:00,
2013-04-11 22:33:00,25.0,22.8,29.99,ENE,65,5.0,5.0,91,0.00,,,0.00,0.00,VWS V14.00,2013-04-12 03:33:00,
2013-04-11 22:38:00,24.9,22.9,30.00,ENE,65,4.0,5.0,92,0.00,,,0.00,0.00,VWS V14.00,2013-04-12 03:38:00,
2013-04-11 22:43:00,25.0,23.0,30.00,ENE,65,4.0,5.0,92,0.00,,,0.00,0.00,VWS V14.00,2013-04-12 03:43:00,
2013-04-11 22:48:00,25.0,23.0,30.00,ENE,64,4.0,5.0,92,0.00,,,0.00,0.00,VWS V14.00,2013-04-12 03:48:00,
2013-04-11 22:53:00,25.1,23.1,29.99,ENE,63,4.0,5.0,92,0.00,,,0.00,0.00,VWS V14.00,2013-04-12 03:53:00,
2013-04-11 22:58:00,25.1,23.1,29.99,ENE,62,4.0,7.0,92,0.00,,,0.00,0.00,VWS V14.00,2013-04-12 03:58:00,
2013-04-11 23:00:00,25.1,23.1,29.99,ENE,62,5.0,7.0,92,0.00,,,0.00,0.00,VWS V14.00,2013-04-12 04:00:00,
2013-04-11 23:01:00,25.1,23.1,29.99,ENE,62,4.0,5.0,92,0.00,,,0.00,0.00,VWS V14.00,2013-04-12 04:01:00,
2013-04-11 23:06:00,25.0,23.0,29.99,ENE,62,3.0,5.0,92,0.00,,,0.00,0.00,VWS V14.00,2013-04-12 04:06:00,
2013-04-11 23:07:00,25.0,23.0,29.99,ENE,62,4.0,5.0,92,0.00,,,0.00,0.00,VWS V14.00,2013-04-12 04:07:00,
2013-04-11 23:12:00,25.0,23.0,29.99,ENE,62,3.0,5.0,92,0.00,,,0.00,0.00,VWS V14.00,2013-04-12 04:12:00,
2013-04-11 23:17:00,25.0,23.0,29.99,ENE,62,5.0,5.0,92,0.00,,,0.00,0.00,VWS V14.00,2013-04-12 04:17:00,
2013-04-11 23:22:00,25.0,23.0,29.99,ENE,62,4.0,5.0,92,0.00,,,0.00,0.00,VWS V14.00,2013-04-12 04:22:00,
2013-04-11 23:28:00,24.9,22.9,29.99,ENE,59,5.0,7.0,92,0.00,,,0.00,0.00,VWS V14.00,2013-04-12 04:28:00,
2013-04-11 23:33:00,24.9,22.9,29.99,ENE,58,4.0,5.0,92,0.00,,,0.00,0.00,VWS V14.00,2013-04-12 04:33:00,
2013-04-11 23:38:00,24.8,22.8,29.99,NE,44,3.0,6.0,92,0.00,,,0.00,0.00,VWS V14.00,2013-04-12 04:38:00,
2013-04-11 23:43:00,24.8,22.8,29.99,NE,41,4.0,6.0,92,0.00,,,0.00,0.00,VWS V14.00,2013-04-12 04:43:00,
2013-04-11 23:48:00,24.7,22.7,29.99,NE,38,3.0,6.0,92,0.00,,,0.00,0.00,VWS V14.00,2013-04-12 04:48:00,
2013-04-11 23:53:00,24.6,22.6,29.99,NE,38,5.0,6.0,92,0.00,,,0.00,0.00,VWS V14.00,2013-04-12 04:53:00,
2013-04-11 23:58:00,24.6,22.6,29.99,NE,38,4.0,6.0,92,0.00,,,0.00,0.00,VWS V14.00,2013-04-12 04:58:00,